This is the latest recevied weather packets stored in our database for station/object K5NOC-12. If no packets are shown the sender has not sent any weather packets the latest 10 day(s).
| Time | Temp. | Humidity | Pressure | Rain* | Wind** | Luminosity | Snow |
|---|---|---|---|---|---|---|---|
| 1787873620 | 32.22° C | 38% | 1020.4 hPa | 0 mm | - | - | - |
| 1787872719 | 32.22° C | 37% | 1020.4 hPa | 0 mm | - | - | - |
| 1787871819 | 31.67° C | 36% | 1020.4 hPa | 0 mm | - | - | - |
| 1787870918 | 32.78° C | 36% | 1020.5 hPa | 0 mm | - | - | - |
| 1787870018 | 32.22° C | 36% | 1020.6 hPa | 0 mm | - | - | - |
| 1787869118 | 32.78° C | 35% | 1020.8 hPa | 0 mm | - | - | - |
| 1787868218 | 32.78° C | 36% | 1021 hPa | 0 mm | - | - | - |
| 1787867318 | 32.22° C | 37% | 1021.1 hPa | 0 mm | - | - | - |
| 1787866418 | 32.22° C | 37% | 1021.4 hPa | 0 mm | - | - | - |
| 1787865518 | 32.22° C | 38% | 1021.8 hPa | 0 mm | - | - | - |
| 1787864617 | 31.11° C | 39% | 1021.9 hPa | 0 mm | - | - | - |
| 1787863717 | 31.67° C | 39% | 1022.1 hPa | 0 mm | - | - | - |
| 1787862817 | 31.67° C | 39% | 1022.5 hPa | 0 mm | - | - | - |
| 1787861917 | 31.67° C | 41% | 1022.7 hPa | 0 mm | - | - | - |
| 1787861017 | 31.11° C | 43% | 1023 hPa | 0 mm | - | - | - |
| 1787860117 | 30.56° C | 45% | 1023.1 hPa | 0 mm | - | - | - |
| 1787859217 | 30° C | 47% | 1023.2 hPa | 0 mm | - | - | - |
| 1787858317 | 29.44° C | 48% | 1023.4 hPa | 0 mm | - | - | - |
| 1787857416 | 29.44° C | 47% | 1023.5 hPa | 0 mm | - | - | - |
| 1787856516 | 28.89° C | 50% | 1023.5 hPa | 0 mm | - | - | - |
| 1787855616 | 28.33° C | 52% | 1023.8 hPa | 0 mm | - | - | - |
| 1787854716 | 28.33° C | 54% | 1023.8 hPa | 0 mm | - | - | - |
| 1787853816 | 27.78° C | 55% | 1024 hPa | 0 mm | - | - | - |
| 1787852916 | 27.22° C | 58% | 1024.1 hPa | 0 mm | - | - | - |
| 1787852016 | 26.67° C | 59% | 1024.3 hPa | 0 mm | - | - | - |
* Rain latest hour (hover to see other rain measurements)
** Current wind speed in m/s (hover to see current wind gust speed)